Location: Ch�tillon
(48.8024°N, 2.2935°E)
Time: 14:08:19
(UTC+00:00)

DIWATA 2B (PO-101) - Pass Details

Date: 01 July 2022
Orbit: 583 x 599 km, 98.0° (Epoch: 19 August)

Event Time Altitude Azimuth Distance (km) Brightness Sun altitude
Exits shadow 00:01:58 - 110° (ESE) 2,742 ? -18.1°
Reaches altitude 10° 00:04:55 10° 84° (E) 1,945 ? -18.0°
Maximum altitude 00:06:49 13° 57° (ENE) 1,763 ? -18.0°
Drops below altitude 10° 00:08:43 10° 30° (NNE) 1,952 ? -18.0°
Sets 00:11:59 0° 3° (N) 2,860 ? -18.0°
